Find Kosmos-2098

NORAD ID: 20774 Int'l Des: 1990-078 Owner: PVO Country: SU operational
LEOPOLAR

Live Position

Loading 3D Globe...

About Kosmos-2098

Description loading...

Upcoming Passes

Passes for default location (London). Set your location on the main map for personalized predictions.

Altitude History

Loading altitude history...

Two-Line Element Set

1 20774U 90078A 26105.95305959 .00003119 00000-0 21701-3 0 9991
2 20774 82.9362 128.7258 0746338 40.6272 324.8182 13.89805624763872
Epoch: Apr 15, 2026 • Age: 6 hours

Current Status

Altitude 990.8 km
Velocity 7.33 km/s
Sub-Earth Point 39.67°N, 28.39°E
Launch Date Aug 28, 1990
Age 35.6 years
Type other

Technical Details

Classification Payload
Mass 585.00 kg
Dry Mass 585.00 kg
Total Mass 585.00 kg
Length 2.00 m
Diameter 2.00 m
Span 2.00 m
Shape Sphere
Manufacturer YUZH
Bus Type Vektor
Phase Status In Orbit
Owner/State PVO/SU

Most Searched